Location: Newark
(58.9986°N, 38.5006°E)
Time: 15:47:58
(UTC+00:00)

Vanguard 2 - All Passes

Search period start: 23 April 2021 00:00
Search period end: 03 May 2021 00:00
Orbit: 552 x 2938 km, 32.9° (Epoch: 22 April)

Date Brightness Start Highest point End Pass type
(mag) Time Alt. Az. Time Alt. Az. Time Alt. Az.
23 Apr - 09:08:00 10° SSW 09:16:55 18° SSE 09:24:23 10° SE daylight
23 Apr - 11:16:27 10° SW 11:24:54 18° S 11:31:36 10° SSE daylight
23 Apr - 13:30:20 10° SW 13:31:55 10° SSW 13:33:25 10° SSW daylight
24 Apr - 07:19:54 10° S 07:25:48 13° SSE 07:31:16 10° SE daylight
24 Apr - 09:24:02 10° SSW 09:33:58 20° S 09:42:08 10° SE daylight
24 Apr - 11:33:31 10° SW 11:41:54 18° SSW 11:48:35 10° SSE daylight
25 Apr - 07:34:14 10° S 07:42:44 16° SSE 07:50:21 10° SE daylight
25 Apr - 09:40:26 10° SW 09:51:01 21° S 09:59:37 10° SE daylight
25 Apr - 11:50:50 10° SW 11:58:50 17° SSW 12:05:19 10° SSE daylight
26 Apr - 07:49:35 10° SSW 07:59:41 19° SSE 08:08:35 10° SE daylight
26 Apr - 09:57:07 10° SW 10:08:03 22° S 10:16:54 10° SE daylight
26 Apr - 12:08:27 10° WSW 12:15:43 16° SSW 12:21:43 10° S daylight
27 Apr - 06:03:07 10° SSE 06:08:30 12° SE 06:13:43 10° SE daylight
27 Apr - 08:05:29 10° SSW 08:16:39 21° SSE 08:26:24 10° SE daylight
27 Apr - 10:14:02 10° SW 10:25:03 22° S 10:33:58 10° SE daylight
27 Apr - 12:26:30 10° WSW 12:32:30 14° SSW 12:37:40 10° S daylight
28 Apr - 06:16:56 10° S 06:25:18 15° SSE 06:33:17 10° ESE daylight
28 Apr - 08:21:47 10° SW 08:33:39 23° S 08:43:57 10° SE daylight
28 Apr - 10:31:11 10° SW 10:42:00 21° SSW 10:50:51 10° SSE daylight
28 Apr - 12:45:25 10° SW 12:49:13 11° SW 12:52:40 10° SSW daylight
29 Apr - 06:32:01 10° S 06:42:08 18° SSE 06:51:44 10° ESE daylight
29 Apr - 08:38:21 10° SW 08:50:39 24° S 09:01:17 10° SE daylight
29 Apr - 10:48:32 10° WSW 10:58:54 20° SSW 11:07:29 10° SSE daylight
30 Apr - 04:49:21 10° SE 04:51:10 10° SE 04:52:58 10° SE daylight
30 Apr - 06:47:46 10° SSW 06:59:01 21° SSE 07:09:40 10° ESE daylight
30 Apr - 08:55:10 10° SW 09:07:38 25° S 09:18:26 10° SE daylight
30 Apr - 11:06:08 10° WSW 11:15:44 18° SSW 11:23:50 10° S daylight
01 May - 05:00:57 10° SSE 05:07:48 14° SE 05:14:44 10° ESE daylight
01 May - 07:03:56 10° SSW 07:15:56 23° SSE 07:27:19 10° ESE daylight
01 May - 09:12:12 10° SW 09:24:36 24° S 09:35:24 10° SE daylight
01 May - 11:24:06 10° WSW 11:32:30 16° SSW 11:39:47 10° S daylight
02 May - 05:15:34 10° S 05:24:31 17° SSE 05:33:40 10° ESE daylight
02 May - 07:20:24 10° SW 07:32:52 25° S 07:44:43 10° SE daylight
02 May - 09:29:24 10° WSW 09:41:31 24° SSW 09:52:10 10° SSE daylight
02 May - 11:42:39 10° WSW 11:49:11 14° SW 11:55:04 10° SSW daylight
